Weather History for Clinton-Sherman, OK

Change the Weather History Date:

Wednesday, November 27, 2013

  Actual Average Record
Temperature  
Mean Temperature 30 °F -  
Max Temperature 39 °F 54 °F 68 °F (2006)
Min Temperature 21 °F 34 °F 19 °F (1996)
Degree Days  
Heating Degree Days 35    
Moisture  
Dew Point 21 °F    
Average Humidity 68    
Maximum Humidity 85    
Minimum Humidity 50    
Precipitation  
Precipitation 0.00 in - - ()
Sea Level Pressure  
Sea Level Pressure 30.40 in    
Wind  
Wind Speed 8 mph (SSW)    
Max Wind Speed 17 mph    
Max Gust Speed -    
Visibility 10 miles    
Events      
Averages and records for this station are not official NWS values.
T = Trace of Precipitation, MM = Missing Value Source: NWS Daily Summary

Daily Weather History Graph

Daily Weather History Graph

Search for Another Location

Airport:

Trip Planner

Search our weather history database for the weather conditions in past years. The results will help you decide how hot, cold, wet, or windy it might be!

Date:

Astronomy

Nov. 27, 2013 Rise Set
Actual Time 7:23 AM CST 5:25 PM CST
Civil Twilight 6:56 AM CST 5:52 PM CST
Nautical Twilight 6:24 AM CST 6:24 PM CST
Astronomical Twilight 5:54 AM CST 6:54 PM CST
Moon 1:39 AM CST (11/27) 1:52 PM CST (11/27)
Length of Visible Light 10h 56m
Length of Day
10h 01m
Waning Crescent, 31% of the Moon is Illuminated
Nov 27
Waning Crescent
Dec 2
New
Dec 9
First Quarter
Dec 17
Full
Dec 25
Last Quarter

Hourly Weather History & Observations

Time (CST) Temp. Windchill Dew Point Humidity Pressure Visibility Wind Dir Wind Speed Gust Speed Precip Events Conditions
12:53 AM 27.0 °F 19.5 °F 21.0 °F 78% 30.47 in 10.0 mi NNW 6.9 mph - N/A   Clear
1:53 AM 25.0 °F 17.1 °F 19.9 °F 81% 30.46 in 10.0 mi NNW 6.9 mph - N/A   Clear
2:53 AM 24.1 °F - 19.0 °F 81% 30.46 in 10.0 mi North - - N/A   Clear
3:53 AM 26.1 °F 17.6 °F 19.9 °F 78% 30.46 in 10.0 mi NNW 8.1 mph - N/A   Clear
4:53 AM 23.0 °F 17.0 °F 19.0 °F 85% 30.47 in 10.0 mi NNW 4.6 mph - N/A   Clear
5:53 AM 23.0 °F 15.8 °F 18.0 °F 81% 30.49 in 10.0 mi North 5.8 mph - N/A   Clear
6:53 AM 21.9 °F 17.2 °F 17.1 °F 82% 30.50 in 10.0 mi NW 3.5 mph - N/A   Clear
7:53 AM 23.0 °F - 19.0 °F 85% 30.49 in 10.0 mi Calm Calm - N/A   Clear
8:53 AM 27.0 °F 23.0 °F 17.1 °F 66% 30.50 in 10.0 mi ESE 3.5 mph - N/A   Clear
9:53 AM 30.0 °F 26.5 °F 14.0 °F 51% 30.49 in 10.0 mi SSE 3.5 mph - N/A   Clear
10:53 AM 33.1 °F 28.7 °F 17.1 °F 52% 30.47 in 10.0 mi SSW 4.6 mph - N/A   Clear
11:53 AM 35.1 °F 27.9 °F 19.0 °F 52% 30.45 in 10.0 mi South 9.2 mph - N/A   Clear
12:53 PM 37.0 °F 31.6 °F 19.9 °F 50% 30.40 in 10.0 mi SW 6.9 mph - N/A   Clear
1:53 PM 39.0 °F 31.8 °F 21.9 °F 50% 30.36 in 10.0 mi SSW 11.5 mph - N/A   Clear
2:53 PM 39.9 °F 33.4 °F 24.1 °F 53% 30.34 in 10.0 mi South 10.4 mph - N/A   Clear
3:53 PM 39.9 °F 32.1 °F 25.0 °F 55% 30.32 in 10.0 mi South 13.8 mph - N/A   Clear
4:53 PM 37.9 °F 30.0 °F 26.1 °F 62% 30.32 in 10.0 mi SSW 12.7 mph - N/A   Clear
5:53 PM 34.0 °F 26.0 °F 27.0 °F 75% 30.31 in 10.0 mi South 10.4 mph - N/A   Clear
6:53 PM 35.1 °F 25.9 °F 25.0 °F 67% 30.31 in 10.0 mi South 13.8 mph - N/A   Clear
7:53 PM 35.1 °F 25.5 °F 24.1 °F 64% 30.30 in 10.0 mi South 15.0 mph - N/A   Clear
8:53 PM 35.1 °F 24.8 °F 24.1 °F 64% 30.29 in 10.0 mi South 17.3 mph - N/A   Clear
9:53 PM 33.1 °F 22.6 °F 24.1 °F 70% 30.28 in 10.0 mi South 16.1 mph - N/A   Clear
10:53 PM 32.0 °F 23.6 °F 24.1 °F 73% 30.27 in 10.0 mi South 10.4 mph - N/A   Clear
11:53 PM 32.0 °F 24.2 °F 25.0 °F 75% 30.27 in 10.0 mi South 9.2 mph - N/A   Clear